Regional Weather Roundup
Issued by NWS

Home | Current Version | Previous Version | Text Only | Print | Product List | Glossary Off
Versions: 1 2 3 4 5 6 7 8 9 10 11 12 13 14 15 16 17 18 19 20 21 22 23 24 25 26 27 28 29 30 31 32 33 34 35 36 37 38 39 40 41 42 43 44 45 46 47 48 49 50

000
ASUS45 KSLC 050210
RWRUT

UTAH REGIONAL WEATHER ROUNDUP
NATIONAL WEATHER SERVICE SALT LAKE CITY UT
800 PM MDT MON MAY 04 2015

UTZ001>011-023>025-050300-

NORTHERN UTAH

CITY           SKY/WX    TMP DP  RH WIND       PRES   REMARKS
BRIGHAM CITY   CLOUDY    63  42  46 SE7       29.86F
HILL AFB       NOT AVBL
LOGAN          CLEAR     59  48  67 CALM      29.87F
OGDEN          CLOUDY    64  40  41 NE5       29.86R
PROVO AIRPORT  MOCLDY    64  41  42 CALM      29.86S
SALT LAKE CITY MOCLDY    68  43  40 NW6       29.84R
VERNAL         CLOUDY    61  39  44 NW8       29.92S
WENDOVER       CLOUDY    72  30  21 NW9       29.84S
HEBER CITY     MOCLDY    61  36  39 NE6       29.92S
WEST JORDAN    CLEAR     64  46  52 NW7       29.87R

$$

UTZ012>022-026-027-050300-

SOUTHERN/CENTRAL UTAH

CITY           SKY/WX    TMP DP  RH WIND       PRES   REMARKS
BLANDING       CLOUDY    53  47  81 SW6       30.03R
BRYCE CANYON   CLOUDY    46  42  86 NE9       30.02R
CEDAR CITY     LGT RAIN  53  45  74 SE14      29.91F
DELTA          CLOUDY    63  43  48 NE8       29.88R
HANKSVILLE     MOCLDY    63  43  48 CALM      29.88S
MILFORD        MOCLDY    60  42  51 S12       29.88R
MOAB/CYNLANDS  CLOUDY    63  47  55 SW14      29.84S
PRICE          CLOUDY    62  40  44 NW10G18   29.90R
ST GEORGE      CLOUDY    73  37  27 W18       29.82R
KANAB          MOCLDY    59  41  51 S14       29.94S

$$

REGIONAL REPORTS     COLORADO/ARIZONA

CITY           SKY/WX    TMP DP  RH WIND       PRES   REMARKS
CRAIG, CO      PTCLDY    55  40  56 N10       29.99R
GRAND JUNCTION MOCLDY    64  40  41 NE7       29.88S
RIFLE          PTCLDY    59  43  55 CALM      29.94S
MONTROSE       LGT RAIN  53  45  74 E21       29.98F
CORTEZ         MOCLDY    54  45  71 S8        29.97F
PAGE, AZ       PTCLDY    69  39  33 NW3       29.84S
GRAND CANYON   PTCLDY    49  42  77 VRB3      29.98F
KINGMAN        CLOUDY    62  45  53 W14       29.91R
FLAGSTAFF      PTCLDY    50  41  71 SW8       29.98S

$$

REGIONAL REPORTS    NEVADA/IDAHO/WYOMING

CITY           SKY/WX    TMP DP  RH WIND       PRES   REMARKS
LAS VEGAS, NV  CLOUDY    74  41  30 E15       29.78R
ELY            MOCLDY    59  35  40 N3        29.95F
ELKO           CLOUDY    59  39  47 W18       29.91R
POCATELLO, ID  PTCLDY    69  36  29 S9        29.85S
BURLEY         MOCLDY    65  43  44 CALM      29.81S
EVANSTON, WY   CLOUDY    53  40  61 E6        30.01S
ROCK SPRINGS   CLOUDY    56  35  45 N12       30.00R
KEMMERER       CLOUDY    48  39  71 SE15      30.05R

$$



USA.gov is the U.S. government's official web portal to all federal, state and local government web resources and services.